Powrót do katalogu

STARLINK-36526

AktywnyŁącznośćVLEO
NORAD 67508·PAYLOAD·🇺🇸 United States

Wystrzelony Jan 18, 2026 z Cape Canaveral Space Force Station

Loading…

Następne Przeloty (najbliższe 24 godziny)

TLE

ŚwieżeSource: CelesTrak SupGP

Epoka: Sep 15, 2026, 03:20 UTC

1 67508C 26012R   26258.13937500  .00042342  00000+0  15335-2 0  2589
2 67508  43.0018 324.0390 0001583 268.2098 351.0628 15.27559742    10

Śledź STARLINK-36526 w czasie rzeczywistym z AllMySat

Download on the App Store